Clinton, British Columbia

5:07 AM PDT on September 26, 2017 (GMT -0700)
Clinton

Weather History for CWCL - December, 2013

Change the Weather History Date:

Saturday, December 21, 2013

  Actual Average Record
Temperature  
Mean Temperature 18 °F -  
Max Temperature 24 °F 24 °F 37 °F (1999)
Min Temperature 12 °F 13 °F -14 °F (2008)
Degree Days  
Heating Degree Days 47    
Moisture  
Dew Point 14 °F    
Average Humidity 74    
Maximum Humidity 80    
Minimum Humidity 61    
Precipitation  
Precipitation 0.04 in - - ()
Sea Level Pressure  
Sea Level Pressure 29.94 in    
Wind  
Wind Speed 1 mph ()    
Max Wind Speed 5 mph    
Max Gust Speed -    
Visibility 5.2 miles    
Events      
Averages and records for this station are not official NWS values.
T = Trace of Precipitation, MM = Missing Value Source: Averaged Metar Reports

Daily Weather History Graph

Daily Weather History Graph

Search for Another Location

Airport or City:

Trip Planner

Search our weather history database for the weather conditions in past years. The results will help you decide how hot, cold, wet, or windy it might be!

Date:

Astronomy

Dec. 21, 2013 Rise Set
Actual Time 8:07 AM PST 4:01 PM PST
Civil Twilight 7:27 AM PST 4:40 PM PST
Nautical Twilight 6:45 AM PST 5:23 PM PST
Astronomical Twilight 6:04 AM PST 6:04 PM PST
Moon 8:49 PM PST (12/21) 10:11 AM PST (12/21)
Length of Visible Light 9h 13m
Length of Day
7h 53m
Waning Gibbous, 83% of the Moon is Illuminated
Dec 21
Waning Gibbous
Dec 25
Last Quarter
Jan 1
New
Jan 7
First Quarter
Jan 15
Full

Hourly Weather History & Observations

Time (PST) Temp. Windchill Dew Point Humidity Pressure Visibility Wind Dir Wind Speed Gust Speed Precip Events Conditions
12:00 AM 17.6 °F - 10.4 °F 73% 29.89 in 0.6 mi Calm Calm - N/A   Partly Cloudy
12:07 AM 17.6 °F 12.3 °F 10.4 °F 73% 29.71 in 1.0 mi SW 3.5 mph - N/A   Partly Cloudy
12:18 AM 17.6 °F - 10.4 °F 73% 29.71 in 1.2 mi Calm Calm - N/A   Mostly Cloudy
12:21 AM 17.6 °F - 10.4 °F 73% 29.72 in 3.0 mi Calm Calm - N/A   Mostly Cloudy
12:50 AM 17.6 °F - 10.4 °F 73% 29.73 in 6.0 mi Calm Calm - N/A   Overcast
1:00 AM 17 °F - 10 °F 64% 29.91 in 9 mi Calm Calm - -   Overcast
1:00 AM 17.6 °F - 10.4 °F 73% 29.91 in 9.0 mi Calm Calm - N/A   Overcast
1:08 AM 17.6 °F - 10.4 °F 73% 29.73 in 9.0 mi Calm Calm - N/A   Overcast
1:09 AM 17.6 °F - 10.4 °F 73% 29.73 in 9.0 mi Calm Calm - N/A   Overcast
2:00 AM 17.6 °F - 10.4 °F 73% 29.95 in 9.0 mi Calm Calm - N/A   Overcast
3:00 AM 19.4 °F - 12.2 °F 74% 29.98 in 3.0 mi Calm Calm - N/A   Overcast
3:45 AM 19.4 °F - 12.2 °F 74% 29.82 in 2.5 mi Calm Calm - N/A   Overcast
4:00 AM 20 °F - 12 °F 61% 30.00 in 3 mi Calm Calm - -   Overcast
4:00 AM 19.4 °F - 12.2 °F 74% 30.00 in 3.0 mi Calm Calm - N/A   Overcast
4:02 AM 19.4 °F - 12.2 °F 74% 29.83 in 3.0 mi Calm Calm - N/A   Overcast
4:06 AM 19.4 °F - 12.2 °F 74% 29.83 in 3.0 mi Calm Calm - N/A   Overcast
4:10 AM 19.4 °F - 12.2 °F 74% 29.83 in 3.0 mi Calm Calm - N/A   Overcast
4:14 AM 19.4 °F - 12.2 °F 74% 29.83 in 3.0 mi Calm Calm - N/A   Overcast
4:23 AM 19.4 °F - 12.2 °F 74% 29.83 in 4.0 mi Calm Calm - N/A   Overcast
5:00 AM 21.2 °F - 14.0 °F 74% 30.02 in 3.0 mi Calm Calm - N/A   Overcast
5:02 AM 21.2 °F - 14.0 °F 74% 29.84 in 3.0 mi Calm Calm - N/A   Overcast
5:07 AM 21.2 °F - 14.0 °F 74% 29.84 in 4.0 mi Calm Calm - N/A   Overcast
5:32 AM 21.2 °F - 14.0 °F 74% 29.85 in 9.0 mi Calm Calm - N/A   Overcast
5:51 AM 21.2 °F - 14.0 °F 74% 29.86 in 3.0 mi Calm Calm - N/A   Overcast
5:59 AM 21.2 °F - 14.0 °F 74% 29.86 in 2.2 mi Calm Calm - N/A   Mostly Cloudy
6:00 AM 21.2 °F - 14.0 °F 74% 30.03 in 2.2 mi Calm Calm - N/A   Mostly Cloudy
6:08 AM 21.2 °F - 14.0 °F 74% 29.86 in 1.8 mi Calm Calm - N/A   Mostly Cloudy
6:14 AM 21.2 °F - 14.0 °F 74% 29.86 in 1.8 mi Calm Calm - N/A   Overcast
6:21 AM 21.2 °F - 14.0 °F 74% 29.87 in 1.8 mi Calm Calm - N/A   Mostly Cloudy
6:24 AM 21.2 °F - 14.0 °F 74% 29.87 in 1.8 mi SSW 2.3 mph - N/A   Mostly Cloudy
6:31 AM 21.2 °F - 14.0 °F 74% 29.87 in 1.8 mi SSW 2.3 mph - N/A   Overcast
6:39 AM 21.2 °F - 14.0 °F 74% 29.87 in 2.5 mi SSW 2.3 mph - N/A   Overcast
6:48 AM 21.2 °F - 14.0 °F 74% 29.87 in 6.0 mi SW 2.3 mph - N/A   Mostly Cloudy
6:58 AM 21.2 °F 16.4 °F 14.0 °F 74% 29.87 in 9.0 mi SW 3.5 mph - N/A   Mostly Cloudy
7:00 AM 21 °F - 14 °F 66% 30.04 in 9 mi SW 3.5 mph - -   Overcast
7:00 AM 21.2 °F - 14.0 °F 74% 30.04 in 9.0 mi SW 2.3 mph - N/A   Overcast
7:17 AM 21.2 °F - 14.0 °F 74% 29.87 in 9.0 mi SW 2.3 mph - N/A   Overcast
7:38 AM 21.2 °F - 14.0 °F 74% 29.88 in 9.0 mi WSW 2.3 mph - N/A   Overcast
7:42 AM 21.2 °F - 14.0 °F 74% 29.88 in 9.0 mi Calm Calm - N/A   Overcast
8:00 AM 23.0 °F - 14.0 °F 68% 30.05 in 9.0 mi Calm Calm - N/A   Mostly Cloudy
8:49 AM 21.2 °F 16.4 °F 15.8 °F 80% 29.90 in 9.0 mi SSW 3.5 mph - N/A   Overcast
8:50 AM 23.0 °F 18.4 °F 15.8 °F 74% 29.90 in 9.0 mi SSW 3.5 mph - N/A   Overcast
9:00 AM 23.0 °F 18.4 °F 15.8 °F 74% 30.07 in 9.0 mi SSW 3.5 mph - N/A   Overcast
9:27 AM 21.2 °F - 14.0 °F 74% 29.91 in 9.0 mi Calm Calm - N/A   Overcast
9:34 AM 21.2 °F - 14.0 °F 74% 29.91 in 9.0 mi Calm Calm - N/A   Overcast
9:54 AM 21.2 °F - 14.0 °F 74% 29.91 in 9.0 mi Calm Calm - N/A   Overcast
10:00 AM 22 °F - 15 °F 64% 30.08 in 5 mi Calm Calm - -   Overcast
10:00 AM 23.0 °F - 15.8 °F 74% 30.08 in 5.0 mi Calm Calm - N/A   Overcast
10:30 AM 23.0 °F 18.4 °F 15.8 °F 74% 29.91 in 9.0 mi SSW 3.5 mph - N/A   Overcast
10:37 AM 23.0 °F - 15.8 °F 74% 29.90 in 9.0 mi SW 2.3 mph - N/A   Overcast
11:00 AM 23.0 °F 18.4 °F 15.8 °F 74% 30.08 in 9.0 mi SSW 3.5 mph - N/A   Overcast
12:00 PM 23.0 °F 18.4 °F 17.6 °F 80% 30.06 in 9.0 mi South 3.5 mph - N/A   Overcast
12:26 PM 23.0 °F 18.4 °F 17.6 °F 80% 29.90 in 2.5 mi South 3.5 mph - N/A   Overcast
12:40 PM 23.0 °F - 17.6 °F 80% 29.89 in 9.0 mi Calm Calm - N/A   Overcast
1:00 PM 24 °F - 17 °F 64% 30.06 in 7 mi South 3.5 mph - -   Overcast
1:00 PM 23.0 °F 18.4 °F 17.6 °F 80% 30.06 in 7.0 mi South 3.5 mph - N/A   Overcast
1:57 PM 24.8 °F - 17.6 °F 74% 29.89 in 9.0 mi Calm Calm - N/A   Overcast
2:00 PM 24.8 °F - 17.6 °F 74% 30.06 in 9.0 mi Calm Calm - N/A   Overcast
2:39 PM 24.8 °F - 17.6 °F 74% 29.90 in 9.0 mi South 2.3 mph - N/A   Overcast
2:52 PM 24.8 °F - 17.6 °F 74% 29.90 in 9.0 mi Calm Calm - N/A   Overcast
2:58 PM 24.8 °F - 17.6 °F 74% 29.90 in 9.0 mi Calm Calm - N/A   Overcast
3:00 PM 24.8 °F - 17.6 °F 74% 30.06 in 9.0 mi Calm Calm - N/A   Overcast
3:14 PM 24.8 °F 20.5 °F 17.6 °F 74% 29.91 in 9.0 mi SSW 3.5 mph - N/A   Overcast
3:24 PM 24.8 °F - 17.6 °F 74% 29.91 in 9.0 mi Calm Calm - N/A   Overcast
3:26 PM 24.8 °F - 17.6 °F 74% 29.91 in 9.0 mi Calm Calm - N/A   Overcast
3:50 PM 23.0 °F - 17.6 °F 80% 29.92 in 9.0 mi SW 2.3 mph - N/A   Overcast
3:57 PM 23.0 °F - 17.6 °F 80% 29.92 in 9.0 mi SW 2.3 mph - N/A   Overcast
4:00 PM 23 °F - 17 °F 68% 30.08 in 9 mi SW 2.3 mph - -   Overcast
4:00 PM 23.0 °F - 17.6 °F 80% 30.08 in 9.0 mi SW 2.3 mph - N/A   Overcast
4:40 PM 23.0 °F 18.4 °F 15.8 °F 74% 29.93 in 2.5 mi SW 3.5 mph - N/A   Overcast
4:49 PM 23.0 °F - 15.8 °F 74% 29.93 in 2.2 mi South 2.3 mph - N/A   Overcast
4:50 PM 23.0 °F - 15.8 °F 74% 29.93 in 2.2 mi Calm Calm - N/A   Overcast
5:00 PM 23.0 °F - 15.8 °F 74% 30.09 in 2.2 mi Calm Calm - N/A   Overcast
5:04 PM 23.0 °F - 15.8 °F 74% 29.93 in 2.5 mi SW 2.3 mph - N/A   Overcast
5:09 PM 23.0 °F 18.4 °F 15.8 °F 74% 29.93 in 2.5 mi South 3.5 mph - N/A   Overcast
5:18 PM 23.0 °F - 15.8 °F 74% 29.93 in 2.5 mi South 2.3 mph - N/A   Overcast
5:21 PM 23.0 °F - 15.8 °F 74% 29.93 in 2.5 mi Calm Calm - N/A   Overcast
5:25 PM 23.0 °F - 15.8 °F 74% 29.93 in 4.0 mi Calm Calm - N/A   Overcast
5:32 PM 23.0 °F - 15.8 °F 74% 29.93 in 5.0 mi Calm Calm - N/A   Overcast
5:46 PM 23.0 °F - 15.8 °F 74% 29.93 in 3.0 mi Calm Calm - N/A   Overcast
6:00 PM 23.0 °F - 15.8 °F 74% 30.09 in 3.0 mi Calm Calm - N/A   Overcast
6:03 PM 21.2 °F - 15.8 °F 80% 29.94 in 3.0 mi Calm Calm - N/A   Overcast
6:08 PM 21.2 °F 16.4 °F 14.0 °F 74% 29.93 in 2.5 mi South 3.5 mph - N/A   Overcast
7:00 PM 21 °F - 14 °F 65% 30.10 in 2 mi SSW 3.5 mph - -   Overcast
7:00 PM 21.2 °F 16.4 °F 14.0 °F 74% 30.10 in 2.0 mi SSW 3.5 mph - N/A   Overcast
7:52 PM 21.2 °F 14.9 °F 14.0 °F 74% 29.95 in 3.0 mi SSW 4.6 mph - N/A   Overcast
8:00 PM 21.2 °F 16.4 °F 14.0 °F 74% 30.11 in 2.5 mi SSW 3.5 mph - N/A   Overcast
8:33 PM 21.2 °F - 14.0 °F 74% 29.96 in 2.5 mi SSW 2.3 mph - N/A   Overcast
8:37 PM 21.2 °F - 14.0 °F 74% 29.96 in 3.0 mi SSW 2.3 mph - N/A   Overcast
8:43 PM 21.2 °F 16.4 °F 14.0 °F 74% 29.96 in 4.0 mi SSW 3.5 mph - N/A   Overcast
9:00 PM 21.2 °F 16.4 °F 14.0 °F 74% 30.12 in 3.0 mi SSW 3.5 mph - N/A   Overcast
9:07 PM 21.2 °F - 14.0 °F 74% 29.96 in 3.0 mi SSW 2.3 mph - N/A   Overcast
9:40 PM 21.2 °F 14.9 °F 14.0 °F 74% 29.97 in 3.0 mi SSW 4.6 mph - N/A   Mostly Cloudy
9:43 PM 21.2 °F 16.4 °F 14.0 °F 74% 29.97 in 2.5 mi SSW 3.5 mph - N/A   Mostly Cloudy
10:00 PM 21 °F - 14 °F 64% 30.13 in 3 mi SW 3.5 mph - -  
10:00 PM 21.2 °F 16.4 °F 14.0 °F 74% 30.13 in 3.0 mi SW 3.5 mph - N/A   Mostly Cloudy
10:13 PM 21.2 °F 16.4 °F 14.0 °F 74% 29.98 in 3.0 mi SW 3.5 mph - N/A   Overcast
10:18 PM 21.2 °F 14.9 °F 14.0 °F 74% 29.98 in 3.0 mi SSW 4.6 mph - N/A   Overcast
11:00 PM 21.2 °F 16.4 °F 14.0 °F 74% 30.14 in 3.0 mi SSW 3.5 mph - N/A   Overcast
11:01 PM 21.2 °F 16.4 °F 14.0 °F 74% 29.99 in 2.5 mi SSW 3.5 mph - N/A   Overcast
11:24 PM 21.2 °F 16.4 °F 14.0 °F 74% 29.99 in 1.2 mi SW 3.5 mph - N/A   Overcast